Вернуться в каталог

STARLINK-2429

АктивенСвязьVLEO
NORAD 47838·PAYLOAD·🇺🇸 United States

Запущен Mar 11, 2021 с Cape Canaveral Space Force Station

Loading…

Ближайшие Пролёты (ближайшие 24 часа)

TLE

СвежийSource: CelesTrak SupGP

Эпоха: Sep 14, 2026, 21:18 UTC

1 47838C 21018BD  26257.88798611  .00023481  00000+0  75529-3 0  2577
2 47838  53.1585  85.2647 0001335  81.2370 234.1243 15.31681531    18

Отслеживайте STARLINK-2429 в реальном времени с AllMySat

Download on the App Store